User: anonymous   Login
Location: Waning Moon II Observatory
(30.3730°N, 89.7620°W)
Time: 17:26:03
(UTC-05:00)
Language:

Cosmos 1825 Rocket - Orbit

View from above orbital plane
View from above orbital plane
View from above satellite
View from above satellite

Ground track
Ground track

The orbit data is extracted from the following two-line orbital elements,

1 17567U 87024B   14295.36064247  .00000809  00000-0  96050-4 0  4930
2 17567 082.5321 025.5660 0017964 302.8285 122.2357 14.83179162492838
Epoch (UTC): 22 October 2014 08:39:19
Eccentricity: 0.0017964
inclination: 82.5321°
perigee height: 607 km
apogee height: 632 km
right ascension of ascending node: 25.5660°
argument of perigee: 302.8285°
revolutions per day: 14.83179162
mean anomaly at epoch: 122.2357°
orbit number at epoch: 49283

The dashed part of the orbit path shows where the satellite is in the earth's shadow,  

DLR